Temperature
8 8 8 8 8 8 8 10 11 12 11 12 12 11 10 9 8 7 7 7 8 8 8 8 7 7 7 7 7 7 6 6 6 6 6 6 6 6 5 5 5 5 5 5
7 7 7 7 8 8 8 9 9 10 10 11 10 9 8 8 7 7 7 7 8 8 7 7 7 7 7 7 6 6 6 6 6 6 5 5 5 5 5 5 5 5 4 4
8 7 7 9 9 8 8 8 9 9 11 10 9 9 8 8 7 7 7 7 7 7 7 7 7 7 6 6 6 6 6 5 5 5 5 5 5 5 5 4 4 4 4 4
7 8 8 11 8 8 8 8 8 9 10 9 9 8 7 7 7 7 7 7 7 7 7 7 6 6 6 6 6 5 5 5 5 5 4 4 4 4 4 4 4 4 3 3
7 8 9 10 8 7 7 9 9 8 9 8 6 6 7 7 8 8 8 7 7 7 7 6 6 6 6 5 5 5 5 4 4 4 4 4 4 4 3 3 3 3 3 3
7 7 9 11 8 6 7 10 9 8 8 7 6 9 10 8 8 7 7 7 7 7 6 6 6 5 5 5 5 4 4 4 4 4 4 3 3 3 3 3 3 3 3 2
6 7 9 9 6 6 9 11 8 7 7 6 7 9 8 7 7 7 7 7 6 6 6 6 5 5 5 5 4 4 4 4 3 3 3 3 3 3 3 2 2 2 2 2
6 6 8 7 6 8 10 8 7 7 7 6 7 7 7 7 7 7 6 6 6 6 5 5 5 5 4 4 4 4 4 3 3 3 3 3 2 2 2 2 2 2 2 2
7 9 8 6 7 7 7 7 7 7 7 7 7 7 7 6 6 6 6 6 5 5 5 5 4 4 4 4 4 4 3 3 3 3 3 2 2 2 2 2 1 1 1 1
5 7 7 6 6 7 7 7 7 7 7 7 6 6 6 6 6 5 5 5 5 5 4 4 4 4 4 3 3 3 3 3 3 2 2 2 2 2 1 1 1 1 1 1
5 7 6 6 7 7 7 7 7 7 6 6 6 6 6 6 5 5 5 5 4 4 4 4 4 3 3 3 3 3 3 2 2 2 2 2 1 1 1 1 0 0 0 -0
7 8 7 8 8 7 7 7 7 6 6 6 6 6 5 5 5 5 4 4 4 4 4 3 3 3 3 3 2 2 2 2 2 2 1 1 1 1 1 0 0 -0 -0 -1
7 7 6 6 6 6 6 6 6 6 6 5 5 5 5 4 4 4 4 4 4 3 3 3 3 3 2 2 2 2 2 2 1 1 1 1 0 0 0 0 -0 -0 -1 -1
6 5 5 5 5 5 5 5 5 5 5 4 4 4 4 4 4 4 4 3 3 3 3 2 2 2 2 2 2 2 1 1 1 1 0 0 -0 -0 -1 -1 -1 -1 -1 -1
5 4 4 4 4 4 4 4 4 4 4 4 4 4 3 3 3 3 3 3 3 2 2 2 2 2 2 1 1 1 1 1 0 0 -0 -1 -1 -1 -1 -1 -2 -2 -2 -2
4 3 3 3 3 3 3 3 3 3 3 3 3 3 3 3 3 3 3 2 2 2 2 2 2 1 1 1 1 1 0 0 -0 -0 -1 -1 -1 -2 -2 -2 -2 -2 -3 -3
2 2 2 3 3 3 3 3 3 3 2 2 2 2 2 2 2 2 2 2 2 2 2 1 1 1 1 1 0 0 0 -0 -1 -1 -1 -2 -2 -2 -2 -3 -3 -3 -3 -3
2 2 2 3 3 3 2 2 2 2 2 2 2 2 2 2 2 2 2 1 1 1 1 1 1 1 0 0 -0 -0 -1 -1 -1 -2 -2 -2 -2 -3 -3 -3 -3 -3 -4 -4
2 2 2 2 2 2 2 2 2 2 2 2 1 1 1 1 1 1 1 1 1 1 1 0 0 0 -0 -0 -1 -1 -1 -1 -2 -2 -2 -3 -3 -3 -3 -3 -4 -4 -4 -4
2 2 2 2 2 2 2 2 2 1 1 1 1 1 1 1 1 1 1 1 0 0 0 -0 -0 -0 -1 -1 -1 -1 -2 -2 -2 -3 -3 -3 -3 -3 -4 -4 -4 -4 -5 -5
1 1 1 1 1 1 1 1 1 1 1 1 1 1 1 1 0 0 0 0 0 -0 -0 -1 -1 -1 -1 -1 -2 -2 -2 -3 -3 -3 -3 -3 -4 -4 -4 -4 -5 -5 -5 -5
1 1 1 1 1 1 1 1 1 0 0 0 0 -0 -0 -0 -0 -0 -0 -1 -1 -1 -1 -1 -1 -1 -2 -2 -2 -3 -3 -3 -3 -3 -4 -4 -4 -4 -5 -5 -5 -5 -5 -5
-0 -0 -0 0 0 0 0 0 -0 -0 -0 -0 -0 -0 -1 -1 -1 -1 -1 -1 -1 -1 -2 -2 -2 -2 -2 -3 -3 -3 -3 -3 -3 -4 -4 -4 -5 -5 -5 -5 -5 -6 -6 -6
-1 -1 -1 -1 -1 -1 -0 -0 -0 -1 -1 -1 -1 -1 -1 -1 -1 -1 -2 -2 -2 -2 -2 -2 -2 -3 -3 -3 -3 -3 -4 -4 -4 -4 -4 -5 -5 -5 -6 -6 -6 -6 -6 -6
-1 -1 -1 -1 -1 -1 -1 -1 -1 -1 -1 -1 -1 -1 -2 -2 -2 -2 -2 -2 -2 -2 -3 -3 -3 -3 -4 -4 -4 -4 -4 -4 -4 -4 -5 -5 -5 -6 -6 -6 -6 -6 -6 -6
-2 -2 -2 -2 -2 -2 -2 -2 -2 -2 -2 -2 -2 -2 -2 -2 -2 -3 -3 -3 -3 -3 -3 -3 -4 -4 -4 -4 -4 -4 -4 -4 -5 -5 -5 -5 -6 -6 -6 -6 -6 -6 -6 -6
-2 -2 -2 -2 -2 -2 -2 -2 -2 -2 -2 -2 -3 -3 -3 -3 -3 -3 -3 -3 -4 -4 -4 -4 -4 -4 -5 -5 -5 -5 -5 -5 -5 -5 -6 -6 -6 -6 -6 -6 -6 -6 -6 -7
Wind_Speed
8 8 7 10 11 11 13 12 10 10 11 12 8 7 6 6 6 6 6 6 6 5 5 4 4 3 3 2 2 2 2 3 3 3 3 3 3 3 4 4 4 4 5 5
5 6 7 12 15 16 16 15 16 16 16 12 8 6 6 7 7 8 7 7 7 6 6 5 5 4 3 3 2 2 3 3 3 3 3 3 3 3 4 4 4 4 5 5
5 4 7 10 11 14 10 12 11 14 11 5 5 6 7 7 8 8 8 7 7 7 6 5 5 5 4 3 3 3 3 3 3 3 3 3 3 4 4 4 5 5 5 6
4 5 8 4 1 6 10 11 14 13 11 8 8 7 6 7 8 8 8 7 7 6 6 5 4 4 3 3 3 3 3 3 3 3 3 4 4 5 5 5 5 5 5 6
3 6 9 7 3 5 7 8 10 14 13 8 4 4 6 7 7 7 7 6 6 5 5 4 4 4 3 3 3 3 4 4 3 3 4 4 5 5 5 5 5 5 6 6
5 6 7 3 3 3 3 6 4 8 8 5 5 4 4 2 5 5 5 4 4 4 4 5 4 4 4 4 4 4 4 4 4 4 4 5 5 5 5 5 6 6 6 7
9 8 9 5 4 6 4 3 1 5 6 7 7 5 3 1 3 4 4 4 4 5 5 4 4 4 4 4 5 4 3 4 4 4 5 5 5 5 5 5 6 6 7 7
7 8 9 5 8 7 4 2 2 4 5 7 7 4 3 3 3 4 4 4 4 5 4 4 4 5 5 5 4 3 3 4 5 5 4 4 5 5 5 5 6 6 6 7
10 9 3 6 7 5 3 4 4 5 5 6 6 6 6 6 5 5 5 5 4 5 4 4 4 5 5 4 3 3 4 5 5 5 5 5 5 6 5 5 5 6 6 6
9 12 11 11 12 11 9 9 8 7 6 6 8 8 7 7 6 6 6 5 5 5 5 4 4 5 5 4 4 4 5 5 5 5 5 5 5 5 5 5 6 6 6 7
12 13 11 11 11 12 10 10 9 8 8 9 9 9 8 7 7 6 6 5 6 6 6 6 5 5 5 5 4 5 6 5 5 5 5 5 5 5 6 7 7 7 7 7
12 11 9 9 7 7 8 10 10 9 9 8 9 9 8 8 7 6 6 6 6 7 7 6 5 6 5 5 5 5 5 5 4 4 4 5 5 6 8 10 11 13 13 12
16 11 11 12 9 8 8 9 8 9 9 8 8 8 8 7 6 6 6 7 7 7 7 6 6 6 6 5 5 6 6 5 5 5 5 5 5 6 7 7 9 12 13 13
14 11 12 12 11 9 8 8 7 7 7 7 6 6 6 6 6 7 8 7 7 7 6 6 7 7 6 5 6 6 6 6 6 5 5 5 6 6 6 7 8 7 8 11
13 13 12 10 8 7 6 6 6 7 7 6 6 6 6 7 7 8 7 5 5 6 6 6 7 7 5 5 6 6 6 5 5 5 5 6 6 6 6 8 8 8 8 7
9 9 10 11 10 9 7 7 7 8 7 7 6 7 7 7 6 6 5 5 6 7 7 7 8 6 4 5 6 5 6 7 7 6 6 6 6 6 7 7 8 8 8 8
8 8 8 8 9 9 8 8 8 8 7 7 7 6 5 5 5 5 5 5 6 7 7 7 7 5 4 5 6 5 5 5 7 6 6 6 6 7 7 7 8 8 8 9
10 10 9 8 8 8 8 7 7 6 6 6 5 4 5 5 6 6 5 4 4 5 6 6 5 4 5 5 5 5 5 5 5 6 6 6 7 7 7 8 8 9 9 9
7 8 8 8 8 8 7 7 6 6 5 5 5 5 6 6 6 5 4 4 5 6 5 5 5 5 5 6 6 5 6 6 6 6 6 8 8 7 7 8 8 9 9 8
5 5 5 6 5 5 6 5 5 5 5 5 5 5 5 5 5 4 4 5 6 5 4 4 5 5 6 6 6 5 6 6 7 7 6 7 7 8 8 8 8 9 9 8
5 4 4 4 4 4 4 4 4 4 3 4 5 5 5 4 4 4 4 5 5 4 5 5 5 5 5 5 6 6 6 6 7 7 7 7 7 8 8 8 8 8 8 8
4 4 4 3 3 3 3 2 3 3 3 3 4 4 4 4 4 4 6 6 5 5 4 4 4 6 6 7 6 6 7 7 7 7 7 7 8 8 8 9 9 8 8 8
4 3 3 3 3 3 3 3 3 3 3 4 4 4 5 5 4 4 5 4 4 5 5 5 6 8 10 7 6 7 7 8 8 8 8 8 8 8 8 9 8 8 8 8
3 3 3 2 2 2 3 3 3 2 3 4 4 5 4 4 4 4 5 5 6 7 6 7 9 11 10 6 6 7 7 8 8 8 8 8 8 8 8 8 8 8 8 9
3 3 3 2 2 3 3 3 2 3 3 3 4 4 4 4 4 5 4 5 7 7 6 8 10 11 8 6 7 7 7 8 8 7 7 7 7 7 8 8 8 8 8 8
3 3 3 4 3 3 3 3 3 3 3 3 4 3 3 3 4 4 4 5 7 8 7 6 6 7 6 7 7 7 7 7 8 8 8 7 8 8 8 8 9 8 7 7
3 3 3 3 3 3 3 3 3 4 3 4 5 4 4 4 4 5 5 5 6 6 6 6 6 6 6 6 6 7 7 7 7 7 7 7 7 7 7 8 7 7 6 6
Wind_Direction
266 273 265 259 250 228 224 233 245 256 260 268 269 264 254 236 225 218 213 209 205 201 196 193 192 194 194 195 201 214 228 240 251 258 259 260 263 266 265 263 264 265 262 259
272 265 265 265 254 241 238 240 245 259 268 269 270 264 251 237 225 222 218 215 212 208 203 204 204 204 203 206 210 223 236 246 254 257 260 264 270 273 272 270 268 265 263 264
275 298 291 268 248 222 218 221 225 239 250 254 249 249 243 235 228 228 225 220 216 213 211 211 210 209 213 214 217 227 239 248 251 255 262 268 271 269 269 270 269 266 267 266
283 291 253 268 114 210 223 239 229 242 255 253 257 267 258 243 234 231 226 222 218 214 211 207 205 208 213 213 217 228 241 249 252 254 263 270 268 267 271 272 270 269 269 268
247 268 276 279 225 194 214 260 232 236 248 254 263 267 253 235 229 231 226 221 216 209 203 198 197 196 198 211 220 231 242 251 256 258 264 269 270 274 277 274 274 273 273 272
230 250 259 279 139 165 203 265 225 218 231 220 189 245 264 204 215 223 218 207 199 189 187 190 191 187 198 213 227 239 249 258 263 262 263 268 273 277 275 272 274 277 275 273
231 245 265 269 147 159 220 294 156 205 212 195 209 255 315 242 219 218 213 204 194 190 194 197 189 192 207 220 235 246 253 258 262 263 264 269 273 272 272 272 274 275 278 279
208 227 252 175 158 202 259 340 221 225 221 219 234 264 268 248 232 217 213 208 202 200 201 195 192 201 219 236 245 247 250 255 261 265 266 265 268 270 268 268 274 278 282 286
212 230 282 183 213 243 271 263 262 254 246 235 244 254 252 248 240 230 221 214 208 207 206 205 205 212 231 244 243 245 249 255 263 268 267 263 266 270 272 269 269 275 276 279
249 260 261 255 254 256 252 255 257 255 251 239 247 254 250 245 239 233 224 217 209 208 215 219 218 226 239 243 237 241 250 257 261 266 270 268 264 262 263 265 267 269 271 274
253 268 277 263 250 253 254 253 256 255 251 246 248 251 247 244 238 231 225 216 210 214 222 228 227 235 239 236 233 242 252 258 261 262 267 271 267 262 261 262 262 269 274 273
251 255 251 270 268 259 251 251 249 250 252 245 239 244 244 243 237 229 224 217 215 222 229 235 237 242 243 236 233 240 250 257 260 263 266 269 276 279 252 252 265 264 264 267
256 266 263 272 273 261 258 259 255 246 244 246 242 238 237 240 236 228 224 221 222 226 230 236 240 246 245 236 232 237 247 256 260 261 264 268 271 277 288 276 256 259 262 265
251 257 264 263 263 262 261 265 260 252 246 243 241 235 230 235 236 231 229 228 228 230 233 236 242 249 248 236 232 239 248 252 254 259 261 264 266 269 272 281 289 286 269 266
251 245 253 267 269 265 261 257 255 252 248 246 238 231 228 230 235 237 237 228 223 229 235 237 244 251 246 233 234 241 247 251 254 260 261 263 265 266 267 270 274 281 286 281
257 252 251 254 257 259 255 248 250 254 252 249 242 238 236 237 243 245 234 214 216 230 236 239 245 250 240 234 237 245 248 246 252 260 261 262 262 263 266 269 273 276 277 281
250 250 245 249 252 253 250 247 248 252 251 246 243 241 237 235 241 242 236 225 231 240 242 241 245 247 237 234 238 246 252 252 247 256 258 259 261 262 265 268 271 274 275 277
249 254 252 253 255 256 256 253 249 246 245 244 240 229 224 225 234 241 240 237 246 254 251 244 242 240 239 236 238 245 250 253 252 255 259 260 264 264 265 267 271 274 279 280
257 258 259 258 255 253 253 252 247 243 240 229 220 222 227 231 236 239 232 230 240 253 256 245 231 237 242 240 237 243 246 252 257 258 259 263 265 264 265 268 272 275 278 279
276 272 267 263 256 250 251 249 242 238 232 220 217 222 229 235 233 232 231 239 244 250 257 257 252 250 249 245 240 247 249 254 258 261 261 261 264 267 267 269 272 275 275 275
278 275 267 263 263 260 251 246 237 234 230 217 218 227 236 243 237 231 236 257 263 256 256 251 250 251 252 252 249 253 253 255 257 259 261 263 265 267 268 269 270 271 272 273
284 276 272 272 273 281 282 267 245 238 234 231 232 233 236 244 243 245 244 248 260 258 262 257 256 255 259 265 259 256 256 257 259 260 260 262 264 267 269 270 271 271 271 272
286 280 276 276 274 283 293 282 256 238 234 235 236 236 238 244 241 244 264 258 256 259 265 262 263 268 272 269 261 258 259 260 261 260 260 261 262 264 267 270 271 271 271 272
289 285 285 288 279 271 280 285 276 259 248 249 245 241 240 250 260 253 256 264 269 272 271 268 271 273 274 267 263 261 261 262 262 263 263 263 263 264 266 268 270 271 271 273
288 284 281 275 268 265 264 271 277 270 263 260 260 255 247 242 250 266 270 268 269 276 276 273 274 275 271 264 261 261 262 262 263 265 264 263 264 265 267 267 267 270 272 272
276 275 275 274 271 267 263 258 258 261 263 273 280 275 270 266 261 265 270 270 269 273 274 274 273 270 263 262 261 262 264 268 269 265 262 263 265 266 267 267 268 268 270 270
283 283 285 289 283 266 257 253 254 262 264 269 281 283 281 280 277 275 275 275 275 274 274 273 272 268 266 266 266 266 266 267 267 265 265 264 264 264 265 266 267 268 268 267
Height
1509 1509 1509 1506 1503 1505 1504 1497 1493 1483 1484 1479 1481 1483 1484 1485 1486 1487 1487 1488 1489 1490 1490 1491 1492 1492 1493 1493 1493 1493 1492 1492 1491 1491 1490 1489 1488 1487 1487 1486 1485 1484 1483 1482
1511 1508 1507 1504 1497 1497 1497 1495 1491 1487 1483 1478 1481 1482 1482 1483 1483 1483 1484 1485 1486 1487 1488 1489 1489 1490 1490 1490 1490 1490 1489 1489 1488 1487 1487 1486 1485 1484 1483 1482 1481 1480 1479 1478
1503 1505 1504 1491 1483 1486 1487 1485 1485 1482 1476 1477 1479 1479 1479 1479 1480 1480 1481 1482 1483 1484 1485 1486 1487 1487 1487 1487 1487 1487 1486 1486 1485 1484 1483 1482 1482 1481 1480 1478 1477 1476 1475 1474
1506 1503 1498 1476 1482 1481 1482 1479 1480 1477 1475 1476 1476 1477 1476 1476 1477 1477 1478 1479 1480 1481 1482 1483 1484 1484 1484 1484 1484 1483 1483 1482 1482 1481 1480 1479 1478 1477 1476 1475 1473 1472 1471 1469
1506 1496 1484 1476 1479 1481 1480 1474 1472 1473 1472 1474 1475 1475 1473 1472 1473 1474 1475 1476 1477 1478 1479 1480 1480 1481 1481 1481 1481 1480 1480 1479 1478 1478 1477 1476 1475 1474 1472 1471 1469 1468 1466 1464
1503 1498 1484 1472 1478 1479 1480 1471 1468 1469 1470 1472 1473 1471 1468 1469 1469 1471 1472 1473 1473 1475 1476 1477 1477 1478 1478 1478 1477 1477 1476 1476 1475 1474 1473 1472 1471 1470 1468 1467 1465 1463 1462 1460
1500 1494 1478 1473 1477 1480 1476 1465 1467 1467 1467 1469 1469 1468 1468 1467 1467 1468 1469 1470 1471 1472 1473 1473 1474 1474 1474 1474 1474 1474 1473 1472 1471 1470 1469 1468 1467 1466 1464 1462 1460 1459 1457 1455
1494 1492 1479 1472 1475 1473 1466 1466 1465 1465 1466 1466 1466 1466 1466 1466 1466 1466 1467 1467 1468 1469 1469 1470 1470 1471 1471 1471 1470 1470 1469 1468 1467 1467 1465 1464 1463 1461 1460 1458 1456 1454 1452 1450
1479 1472 1468 1469 1468 1466 1466 1465 1464 1464 1464 1464 1464 1464 1464 1464 1464 1464 1464 1465 1465 1465 1466 1467 1467 1467 1467 1467 1466 1466 1465 1464 1463 1462 1461 1460 1458 1456 1455 1453 1451 1449 1447 1445
1476 1467 1465 1465 1464 1463 1463 1462 1461 1462 1461 1461 1461 1461 1461 1460 1460 1460 1461 1461 1461 1462 1462 1463 1463 1463 1463 1463 1462 1462 1461 1460 1459 1458 1456 1455 1453 1452 1450 1448 1446 1444 1442 1439
1469 1463 1462 1458 1457 1457 1458 1457 1458 1458 1458 1457 1457 1457 1457 1456 1456 1456 1456 1457 1457 1458 1458 1459 1459 1459 1459 1459 1458 1457 1457 1456 1454 1453 1452 1450 1448 1447 1445 1443 1441 1439 1436 1434
1458 1456 1456 1454 1453 1454 1453 1453 1452 1452 1452 1452 1452 1452 1452 1452 1452 1452 1452 1452 1453 1454 1454 1455 1455 1455 1455 1454 1454 1453 1452 1451 1450 1448 1447 1445 1443 1441 1439 1438 1436 1433 1431 1429
1452 1451 1451 1449 1448 1448 1448 1447 1447 1447 1446 1446 1447 1447 1447 1447 1447 1448 1448 1448 1449 1449 1450 1450 1450 1450 1450 1449 1449 1448 1447 1446 1444 1443 1441 1440 1437 1435 1433 1431 1429 1427 1425 1423
1446 1446 1445 1443 1443 1443 1442 1441 1441 1441 1441 1441 1442 1442 1442 1442 1442 1443 1443 1444 1444 1445 1445 1445 1445 1445 1445 1444 1444 1443 1442 1441 1439 1438 1436 1434 1432 1430 1427 1425 1422 1420 1419 1417
1440 1440 1439 1437 1437 1436 1436 1436 1436 1435 1435 1436 1436 1436 1437 1437 1437 1438 1439 1439 1439 1440 1440 1440 1440 1440 1440 1439 1438 1437 1436 1435 1434 1432 1430 1428 1426 1424 1422 1419 1416 1414 1412 1410
1433 1433 1432 1432 1431 1431 1431 1430 1430 1430 1430 1430 1431 1431 1432 1432 1433 1433 1434 1434 1434 1434 1435 1435 1435 1435 1434 1434 1433 1432 1431 1429 1428 1426 1424 1422 1420 1418 1416 1413 1411 1408 1406 1404
1428 1427 1426 1426 1425 1425 1425 1425 1426 1425 1425 1426 1426 1426 1427 1427 1428 1428 1429 1429 1429 1430 1430 1430 1429 1429 1429 1428 1427 1426 1425 1423 1422 1420 1418 1416 1414 1412 1410 1407 1405 1403 1400 1398
1423 1422 1422 1422 1421 1421 1420 1421 1421 1421 1421 1421 1421 1422 1422 1422 1423 1423 1424 1424 1424 1424 1424 1424 1424 1424 1423 1423 1422 1420 1419 1417 1416 1414 1412 1410 1408 1406 1404 1401 1399 1397 1394 1392
1417 1418 1418 1417 1417 1417 1416 1416 1416 1417 1417 1417 1417 1418 1418 1418 1419 1419 1419 1419 1419 1419 1419 1419 1419 1418 1418 1417 1416 1414 1413 1411 1410 1408 1406 1404 1402 1400 1398 1395 1393 1391 1388 1386
1414 1414 1413 1413 1413 1413 1412 1412 1413 1413 1413 1413 1413 1414 1414 1414 1415 1415 1415 1414 1414 1415 1414 1414 1413 1413 1412 1411 1410 1408 1407 1405 1403 1401 1399 1398 1396 1393 1391 1389 1387 1384 1382 1380
1411 1410 1410 1410 1409 1409 1409 1409 1409 1409 1409 1409 1410 1410 1410 1410 1410 1410 1410 1410 1410 1410 1409 1409 1408 1407 1406 1405 1404 1402 1401 1399 1397 1395 1393 1391 1389 1387 1385 1383 1380 1378 1376 1374
1408 1408 1407 1407 1406 1406 1406 1406 1406 1405 1406 1406 1406 1406 1406 1406 1406 1406 1406 1406 1405 1405 1404 1403 1403 1402 1401 1399 1398 1396 1395 1393 1391 1389 1387 1385 1383 1381 1378 1376 1374 1372 1370 1368
1406 1405 1405 1404 1404 1403 1403 1403 1403 1403 1403 1403 1403 1402 1402 1402 1402 1401 1401 1401 1400 1399 1399 1398 1397 1396 1394 1393 1391 1390 1388 1386 1384 1382 1380 1378 1376 1374 1372 1370 1368 1366 1363 1361
1404 1403 1402 1402 1401 1401 1400 1400 1400 1400 1399 1399 1399 1399 1399 1398 1397 1397 1396 1395 1395 1394 1393 1392 1391 1389 1388 1386 1385 1383 1381 1379 1377 1375 1373 1371 1369 1367 1365 1363 1361 1359 1357 1355
1402 1401 1400 1399 1399 1398 1397 1397 1397 1396 1396 1395 1395 1395 1394 1394 1393 1392 1391 1390 1389 1388 1386 1385 1384 1383 1381 1380 1378 1376 1375 1373 1371 1368 1366 1365 1363 1361 1359 1357 1355 1353 1351 1349
1399 1398 1398 1397 1396 1395 1394 1394 1393 1393 1392 1391 1391 1390 1390 1389 1388 1387 1385 1384 1383 1382 1380 1379 1377 1376 1375 1373 1371 1370 1368 1366 1364 1362 1360 1358 1356 1355 1353 1351 1349 1347 1345 1343
1397 1396 1395 1394 1393 1392 1391 1391 1390 1389 1388 1387 1386 1385 1385 1384 1383 1381 1380 1379 1377 1376 1374 1372 1371 1369 1368 1366 1364 1363 1361 1359 1357 1355 1353 1352 1350 1349 1347 1345 1343 1341 1339 1337